Location: Newark
(44.2003°N, 3.2583°E)
Time: 11:48:30
(UTC+00:00)

SR - Visible Passes

Search period start: 19 October 2019 00:00
Search period end: 29 October 2019 00:00
Orbit: 575 x 881 km, 66.7° (Epoch: 18 October)

Date Brightness Start Highest point End Pass type
(mag) Time Alt. Az. Time Alt. Az. Time Alt. Az.
19 Oct ? 04:33:17 10° N 04:36:10 14° NNE 04:39:04 10° ENE visible
20 Oct ? 05:24:38 10° NNW 05:29:45 30° NE 05:34:53 10° ESE visible
21 Oct ? 04:35:24 10° N 04:39:34 19° NE 04:43:45 10° E visible
22 Oct ? 03:46:27 10° N 03:49:11 13° NNE 03:51:57 10° ENE visible
22 Oct ? 05:27:09 10° NNW 05:32:49 46° NE 05:38:29 10° ESE visible
23 Oct ? 04:37:46 10° NNW 04:42:49 28° NE 04:47:52 10° ESE visible
24 Oct ? 03:48:32 10° N 03:52:37 19° NE 03:56:42 10° E visible
24 Oct ? 05:29:48 10° NNW 05:35:44 74° NE 05:41:38 10° SE visible
25 Oct ? 02:59:37 10° N 03:02:13 13° NNE 03:04:50 10° NE visible
25 Oct ? 04:40:16 10° NNW 04:45:55 44° NE 04:51:31 10° ESE visible
26 Oct ? 03:50:53 10° NNW 03:55:52 27° NE 04:00:52 10° E visible
26 Oct ? 05:32:36 10° NW 05:38:30 67° WSW 05:44:18 10° SSE visible
27 Oct ? 03:02:17 12° N 03:05:39 18° NE 03:09:38 10° ENE visible
27 Oct ? 04:42:53 10° NNW 04:48:50 71° NE 04:54:41 10° SE visible
28 Oct ? 02:14:33 12° NNE 02:15:14 13° NNE 02:17:42 10° NE visible
28 Oct ? 03:54:01 13° NNW 03:58:59 42° NE 04:04:33 10° ESE visible
28 Oct ? 05:35:39 10° NW 05:41:06 39° WSW 05:46:27 10° S visible
